EW0362 Weather Reports


time (UTC)temp
C
wind
direction
speed
KPH
gust
KPH
rain 1hr
cm
rain 24hr
cm
rain mn
cm
humidity
%
barometer
mb
20240416031705 8 338 0.0 0.0 0.00 0.03 0.00 83 1014.4
20240416031205 8 338 0.0 0.0 0.00 0.03 0.00 83 1014.4
20240416030205 8 338 0.0 0.0 0.00 0.03 0.00 83 1014.3
20240416025704 8 338 0.0 0.0 0.00 0.03 0.00 83 1014.3
20240416024204 9 338 0.0 0.0 0.00 0.03 0.00 81 1014.0
20240416023204 10 338 0.0 0.0 0.00 0.03 0.00 81 1013.8
20240416022204 10 338 0.0 0.0 0.00 0.03 0.00 78 1013.6
20240416020704 10 338 0.0 0.0 0.00 0.03 0.00 76 1013.6
20240416020205 10 338 0.0 0.0 0.00 0.03 0.00 76 1013.6
20240416015704 10 338 0.0 0.0 0.00 0.03 0.00 76 1013.6
20240416014704 11 338 0.0 3.2 0.00 0.05 0.00 76 1013.8
20240416014204 11 338 1.6 3.2 0.00 0.05 0.00 76 1013.8
20240416013704 11 337 1.6 3.2 0.00 0.05 0.00 74 1013.9
20240416012205 11 337 0.0 1.6 0.00 0.08 0.00 71 1013.8
20240416011204 11 337 0.0 3.2 0.00 0.08 0.00 71 1013.6
20240416010705 11 346 0.0 1.6 0.00 0.08 0.00 71 1013.5
20240416005705 12 343 0.0 1.6 0.00 0.08 0.00 70 1013.3
20240416005204 12 343 1.6 3.2 0.00 0.08 0.00 71 1013.2
20240416004704 12 344 0.0 3.2 0.00 0.08 0.00 70 1013.2
20240415230705 15 320 3.2 8.0 0.00 0.08 0.00 61 1011.3
20240415224204 16 357 3.2 9.7 0.00 0.10 0.00 57 1011.0
20240415222704 16 271 3.2 11.3 0.00 0.10 0.00 57 1010.6
20240415222206 16 314 3.2 9.7 0.00 0.10 0.00 57 1010.6
20240415221704 16 350 4.8 19.3 0.00 0.13 0.00 57 1010.5
20240415220205 16 0 1.6 4.8 0.00 0.13 0.00 58 1010.3
20240415215204 16 0 3.2 9.7 0.00 0.13 0.00 57 1010.1
20240415214703 16 0 1.6 8.0 0.00 0.13 0.00 58 1010.1
20240415214204 16 0 3.2 12.9 0.00 0.13 0.00 57 1010.0
20240415213704 17 0 6.4 14.5 0.00 0.13 0.00 56 1010.0
20240415212705 18 0 6.4 14.5 0.00 0.13 0.00 53 1009.8
20240415211204 18 0 4.8 14.5 0.00 0.13 0.00 41 1009.3
20240415205705 18 0 8.0 14.5 0.00 0.13 0.00 39 1009.0
20240415205204 18 0 4.8 9.7 0.00 0.13 0.00 41 1009.0
20240415202704 19 198 4.8 16.1 0.00 0.13 0.00 40 1008.5
20240415202204 19 307 4.8 16.1 0.00 0.13 0.00 40 1008.5
20240415201705 19 0 8.0 12.9 0.00 0.13 0.00 39 1008.4
20240415201204 19 0 3.2 14.5 0.00 0.13 0.00 37 1008.4
20240415195705 20 0 8.0 19.3 0.00 0.13 0.00 37 1008.0
20240415194703 20 326 6.4 16.1 0.00 0.13 0.00 39 1007.7
20240415194204 20 317 4.8 14.5 0.00 0.13 0.00 40 1007.8
20240415193703 20 0 3.2 12.9 0.00 0.13 0.00 39 1007.5
20240415191704 20 0 6.4 11.3 0.00 0.13 0.00 39 1007.1
20240415191204 21 0 4.8 19.3 0.00 0.13 0.00 39 1007.1
20240415190704 21 0 4.8 12.9 0.00 0.13 0.00 39 1007.1
20240415185704 21 0 4.8 11.3 0.00 0.13 0.00 40 1007.1
20240415185204 21 0 4.8 14.5 0.00 0.13 0.00 42 1007.1
20240415184704 21 0 4.8 14.5 0.00 0.13 0.00 42 1007.0
20240415184206 21 0 4.8 14.5 0.00 0.13 0.00 42 1007.2
20240415183204 21 0 3.2 12.9 0.00 0.13 0.00 44 1007.2
20240415182204 21 0 1.6 8.0 0.00 0.13 0.00 46 1007.2
20240415181204 21 0 4.8 16.1 0.00 0.13 0.00 45 1007.2
20240415180204 21 0 4.8 12.9 0.00 0.13 0.00 45 1007.2
20240415175704 20 0 3.2 9.7 0.00 0.13 0.00 46 1007.2
20240415174204 20 0 4.8 11.3 0.00 0.13 0.00 46 1007.3
20240415173704 20 0 6.4 19.3 0.00 0.13 0.00 48 1007.4
20240415171704 20 0 6.4 12.9 0.00 0.13 0.00 49 1007.6
20240415170204 20 266 6.4 19.3 0.00 0.13 0.00 52 1007.6
20240415165204 20 274 8.0 12.9 0.00 0.13 0.00 52 1007.5
20240415164204 19 333 4.8 11.3 0.00 0.13 0.00 51 1007.3
20240415162204 18 299 4.8 11.3 0.00 0.13 0.00 56 1007.4
20240415161703 18 297 4.8 12.9 0.00 0.13 0.00 57 1007.6
20240415154704 17 231 3.2 4.8 0.00 0.13 0.00 64 1007.7
20240415154204 17 221 4.8 11.3 0.00 0.13 0.00 64 1007.7
20240415153204 16 200 3.2 9.7 0.00 0.13 0.00 70 1007.8
20240415152703 16 229 3.2 8.0 0.00 0.13 0.00 70 1007.9
20240415151204 16 214 3.2 4.8 0.00 0.13 0.00 75 1008.2
20240415150204 15 299 3.2 8.0 0.00 0.13 0.00 74 1008.5
20240415145204 15 28 0.0 4.8 0.00 0.13 0.00 77 1008.5
20240415142204 13 277 1.6 4.8 0.00 0.13 0.00 84 1008.5
20240415141704 12 262 1.6 4.8 0.00 0.13 0.00 85 1008.5
20240415134203 10 242 1.6 4.8 0.00 0.13 0.00 98 1008.4
20240415133704 10 246 0.0 3.2 0.00 0.13 0.00 99 1008.3
20240415131704 9 228 0.0 0.0 0.00 0.13 0.00 99 1008.5
20240415131204 9 228 0.0 0.0 0.00 0.13 0.00 98 1008.4
20240415125704 8 229 0.0 1.6 0.00 0.13 0.00 99 1008.4
20240415124204 8 230 0.0 1.6 0.00 0.13 0.00 98 1008.5
20240415123203 7 229 0.0 0.0 0.00 0.13 0.00 98 1008.5
20240415122704 7 229 0.0 0.0 0.00 0.13 0.00 98 1008.5
20240415122203 7 229 0.0 1.6 0.00 0.13 0.00 98 1008.5
20240415121204 7 229 0.0 0.0 0.00 0.13 0.00 98 1008.4
20240415120704 6 229 0.0 0.0 0.00 0.13 0.00 98 1008.3
20240415120204 6 229 0.0 0.0 0.00 0.13 0.00 98 1008.4
20240415115204 5 229 0.0 0.0 0.00 0.13 0.00 98 1008.1
20240415112704 5 229 0.0 0.0 0.00 0.13 0.00 98 1007.8
20240415112204 5 229 0.0 1.6 0.00 0.13 0.00 97 1007.7
20240415110204 4 229 0.0 0.0 0.00 0.13 0.00 97 1007.8
20240415105204 4 229 0.0 0.0 0.00 0.13 0.00 96 1007.7
20240415103704 4 229 0.0 0.0 0.00 0.13 0.00 96 1007.5
20240415102704 4 229 0.0 0.0 0.00 0.13 0.00 96 1007.1
20240415102204 4 229 0.0 0.0 0.00 0.13 0.00 96 1007.0
20240415101205 4 229 0.0 0.0 0.00 0.13 0.00 96 1006.8
20240415100703 4 229 0.0 0.0 0.00 0.13 0.00 96 1006.8
20240415095703 4 229 0.0 0.0 0.00 0.13 0.00 96 1006.8
20240415095204 4 229 0.0 0.0 0.00 0.13 0.00 96 1006.7
20240415094703 4 229 0.0 0.0 0.00 0.13 0.00 96 1006.7
20240415093704 4 229 0.0 0.0 0.00 0.13 0.00 96 1006.8
20240415091204 5 229 0.0 0.0 0.00 0.13 0.00 96 1006.5
20240415090204 5 229 0.0 0.0 0.00 0.13 0.00 96 1006.5
20240415084704 5 229 0.0 0.0 0.00 0.13 0.00 96 1006.3
20240415084204 5 229 0.0 0.0 0.00 0.13 0.00 96 1006.2
20240415083703 5 229 0.0 0.0 0.00 0.13 0.00 96 1006.0
20240415083204 5 229 0.0 0.0 0.00 0.13 0.00 95 1006.0
20240415082704 5 229 0.0 0.0 0.00 0.13 0.00 95 1005.9
20240415082204 5 229 0.0 0.0 0.00 0.13 0.00 95 1005.8
20240415081704 5 229 0.0 0.0 0.00 0.13 0.00 95 1005.8
20240415075704 5 229 0.0 0.0 0.00 0.13 0.00 95 1005.7
20240415071703 6 229 0.0 0.0 0.00 0.13 0.00 95 1005.3
20240415071204 6 229 0.0 0.0 0.00 0.13 0.00 95 1005.2
20240415070703 6 229 0.0 0.0 0.00 0.13 0.00 95 1005.1
20240415070203 6 229 0.0 0.0 0.00 0.13 0.00 96 1005.0
20240415065704 6 229 0.0 0.0 0.00 0.13 0.00 95 1005.0
20240415063704 7 229 0.0 0.0 0.00 0.13 0.00 95 1005.0
20240415063203 7 229 0.0 0.0 0.00 0.13 0.00 95 1005.0
20240415062704 7 229 0.0 0.0 0.00 0.13 0.00 95 1005.0
20240415060704 7 229 0.0 0.0 0.00 0.13 0.00 95 1005.0
20240415055703 7 229 0.0 0.0 0.00 0.13 0.00 95 1005.1
20240415054203 7 229 0.0 0.0 0.00 0.13 0.00 96 1005.3
20240415053703 7 229 0.0 0.0 0.00 0.13 0.00 95 1005.3
20240415052703 7 229 0.0 0.0 0.00 0.13 0.00 95 1005.4
20240415052203 8 229 0.0 0.0 0.00 0.13 0.00 96 1005.3
20240415051703 8 229 0.0 0.0 0.00 0.13 0.00 96 1005.4
20240415051203 8 229 0.0 0.0 0.00 0.13 0.00 96 1005.4
20240415050703 8 229 0.0 0.0 0.00 0.13 0.00 95 1005.4
20240415045704 8 229 0.0 0.0 0.00 0.13 0.00 95 1005.4
20240415045203 8 229 0.0 0.0 0.00 0.13 0.00 95 1005.3
20240415043704 8 229 0.0 0.0 0.00 0.13 0.00 95 1005.4
20240415043203 8 229 0.0 0.0 0.00 0.13 0.00 95 1005.4
20240415042703 8 229 0.0 0.0 0.00 0.13 0.00 95 1005.3
20240415041703 8 229 0.0 0.0 0.00 0.13 0.00 95 1005.4
20240415041204 8 229 0.0 0.0 0.00 0.13 0.00 96 1005.5
20240415040703 8 229 0.0 0.0 0.00 0.13 0.00 96 1005.5
20240415040203 9 229 0.0 0.0 0.00 0.13 0.00 96 1005.6
20240415035704 9 229 0.0 0.0 0.00 0.13 0.13 96 1005.5
20240415035203 9 229 0.0 0.0 0.00 0.13 0.13 96 1005.5
20240415034203 9 229 0.0 0.0 0.00 0.13 0.13 96 1005.5
20240415033203 9 229 0.0 0.0 0.00 0.13 0.13 96 1005.5
20240415032203 9 229 0.0 0.0 0.00 0.13 0.13 96 1005.6